Hourly Data Report for September 17, 2017

All times are specified in Local Standard Time (LST). Add 1 hour to adjust for Daylight Saving Time where and when it is observed.

MISCOU ISLAND (AUT)
NEW BRUNSWICK

48°00'32.002" N
64°29'39.008" W
4.00 m
8103050
71719
WMI

Download Data

Hourly Data (September 2017)
Hourly Data Report for September 17, 2017
Temp Definition
°C
Dew Point Temp Definition
°C
Rel Hum Definition
%
Wind Dir Definition
10's deg

Wind Spd Definition
km/h
Visibility Definition
km
Stn Press Definition
kPa
Hmdx Definition


Wind Chill Definition


Weather Definition


TIME
00:00 13.4 7.2 66 4 10   102.27     LegendNANA
01:00 13.4 6.9 65 3 5   102.25     LegendNANA
02:00 13.3 6.5 63 5 5   102.26     LegendNANA
03:00 12.7 7.7 71 13 4   102.23     LegendNANA
04:00 11.7 8.3 80 16 1   102.26     LegendNANA
05:00 12.0 8.9 82 5 5   102.28     LegendNANA
06:00 11.1 7.8 81 9 2   102.32     LegendNANA
07:00 10.6 8.4 86 3 2   102.38     LegendNANA
08:00 10.9 8.3 84 7 4   102.38     LegendNANA
09:00 10.5 8.8 89 9 4   102.43     LegendNANA
10:00 10.4 8.9 90 7 9   102.40     LegendNANA
11:00 10.3 8.8 91 6 12   102.40     LegendNANA
12:00 10.3 9.0 92 8 10   102.37     LegendNANA
13:00 10.4 9.0 91 8 13   102.34     LegendNANA
14:00 10.5 9.0 90 6 14   102.34     LegendNANA
15:00 10.4 8.9 91 6 15   102.28     LegendNANA
16:00 10.7 9.2 91 8 15   102.29     LegendNANA
17:00 10.7 9.3 91 5 14   102.32     LegendNANA
18:00 10.8 9.6 92 6 14   102.33     LegendNANA
19:00 10.9 9.8 93 5 15   102.35     LegendNANA
20:00 11.1 10.0 93 7 14   102.36     LegendNANA
21:00 11.1 9.8 92 6 16   102.38     LegendNANA
22:00 11.2 10.0 93 7 16   102.39     LegendNANA
23:00 11.3 10.3 93 7 17   102.38     LegendNANA

Notes on Data Quality.

Legend

  • E = Estimated
  • M = Missing
  • NA = Not Available
  • ‡ = Partner data that is not subject to review by the National Climate Archives
Date modified: